Flag for Germany Weather past 2 weeks in Hamburg, Hamburg, Germany

Now
59 °F

Light rain. Broken clouds.


Feels Like: 56 °F
Forecast: 55 / 62 °F
Wind: 18 mph from Southwest

Location: Hamburg-Fuhlsbuettel

Current Time: Jul 28, 2015 at 10:40:47 AM

Latest Report: Jul 28, 2015 at 10:20 AM


Visibility: N/A

Pressure: 29.50 "Hg

Humidity: 88%

Dew point: 55 °F

Location of HamburgLocation

Historic Weather in Hamburg — Graph

°F

Hamburg temperature yesterday

Maximum temperature yesterday: 68 °F (at 4:50 PM)
Minimum temperature yesterday: 55 °F (at 5:50 AM)
Average temperature yesterday: 60 °F

Past Weeks' High & Low Weather Summary

 TemperatureHumidityPressure
High86 °F (Jul 17, 4:50 PM)100% (Jul 14, 1:20 AM)30.09 "Hg (Jul 14, 1:20 AM)
Low48 °F (Jul 24, 4:50 AM)36% (Jul 24, 4:50 PM)29.42 "Hg (Jul 25, 1:20 PM)
Average63 °F77%29.86 "Hg
* Reported Jul 13 9:20 AM — Jul 28 9:20 AM, Hamburg, Weather by CustomWeather, © 2015

Note: Actual official high and low records may vary slightly from our data, if they occured in-between our weather recording intervals... More about our weather records

Advertising

Hamburg weather history for previous 24 hours

 ConditionsComfort  
Time TempWeatherWind HumidityBarometerVisibility
9:20 AM
Tue, Jul 28
59 °FLight rain. Broken clouds.17 mph88%29.47 "HgN/A
8:50 AM57 °FLight rain. Broken clouds.13 mph94%29.47 "HgN/A
8:20 AM57 °FLight rain. Broken clouds.17 mph94%29.47 "HgN/A
7:50 AM57 °FDrizzle. Broken clouds.17 mph94%29.47 "Hg6 mi
7:20 AM57 °FRain showers. Broken clouds.16 mph94%29.47 "Hg3 mi
6:50 AM57 °FRain showers. Broken clouds.18 mph94%29.47 "Hg3 mi
6:20 AM57 °FSprinkles. Partly cloudy.18 mph94%29.47 "HgN/A
5:50 AM59 °FSprinkles. Partly cloudy.21 mph88%29.45 "HgN/A
5:20 AM59 °FScattered showers. Partly cloudy.16 mph94%29.47 "HgN/A
4:50 AM59 °FPassing clouds.15 mph94%29.47 "HgN/A
4:20 AM59 °FPassing clouds.15 mph94%29.47 "HgN/A
3:50 AM59 °FPassing clouds.13 mph94%29.47 "HgN/A
3:20 AM59 °FSprinkles. Partly cloudy.14 mph94%29.47 "HgN/A
2:50 AM59 °FScattered showers. Partly cloudy.14 mph94%29.47 "HgN/A
2:20 AM59 °FScattered showers. Passing clouds.15 mph94%29.47 "HgN/A
1:50 AM59 °FPartly cloudy.13 mph94%29.47 "HgN/A
1:20 AM59 °FScattered showers. Passing clouds.15 mph94%29.47 "HgN/A
12:50 AM59 °FScattered showers. Partly cloudy.16 mph94%29.47 "HgN/A
12:20 AM59 °FSprinkles. Partly cloudy.14 mph94%29.47 "HgN/A
11:50 PM
Mon, Jul 27
61 °FSprinkles. Partly cloudy.14 mph88%29.47 "HgN/A
11:20 PM61 °FSprinkles. Partly cloudy.15 mph88%29.47 "HgN/A
10:50 PM61 °FSprinkles. Partly cloudy.13 mph88%29.47 "HgN/A
10:20 PM61 °FPartly sunny.14 mph88%29.47 "HgN/A
9:50 PM61 °FSprinkles. Broken clouds.13 mph94%29.50 "HgN/A
9:20 PM61 °FScattered clouds.12 mph88%29.47 "HgN/A
8:50 PM63 °FScattered clouds.13 mph88%29.47 "HgN/A
8:20 PM63 °FPartly sunny.10 mph88%29.47 "HgN/A
7:50 PM63 °FScattered showers. Partly sunny.10 mph88%29.47 "HgN/A
7:20 PM63 °FScattered showers. Partly sunny.14 mph88%29.47 "HgN/A
6:50 PM63 °FLots of rain. Partly sunny.8 mph94%29.45 "Hg3 mi
6:20 PM63 °FRain showers. Partly sunny.6 mph100%29.47 "HgN/A
5:50 PM61 °FRain showers. Partly sunny.12 mph94%29.45 "Hg6 mi
5:20 PM66 °FRain showers. Partly sunny.13 mph78%29.45 "HgN/A
4:50 PM68 °FSprinkles. Scattered clouds.15 mph78%29.45 "HgN/A
4:20 PM66 °FScattered showers. Scattered clouds.18 mph73%29.45 "HgN/A
3:50 PM66 °FScattered clouds.13 mph78%29.45 "HgN/A
3:20 PM64 °FSprinkles. Broken clouds.16 mph83%29.45 "HgN/A
2:50 PM64 °FSprinkles. Broken clouds.16 mph78%29.47 "HgN/A
2:20 PM66 °FBroken clouds.13 mph78%29.47 "HgN/A
1:50 PM64 °FBroken clouds.12 mph78%29.47 "HgN/A
1:20 PM63 °FBroken clouds.12 mph83%29.47 "HgN/A
12:50 PM63 °FBroken clouds.12 mph88%29.47 "HgN/A
12:20 PM61 °FPartly sunny.9 mph88%29.50 "HgN/A
11:50 AM59 °FDrizzle. Broken clouds.10 mph88%29.50 "HgN/A
11:20 AM57 °FDrizzle. Partly sunny.12 mph94%29.50 "HgN/A
10:50 AM57 °FDrizzle. Broken clouds.12 mph94%29.50 "HgN/A
10:20 AM57 °FDrizzle. Broken clouds.10 mph94%29.50 "HgN/A
Weather by CustomWeather, © 2015

See weather overviewHow to use our weather pages